Volver al catálogo

STARLINK-36217

ActivoComunicacionesVLEO
NORAD 67120·PAYLOAD·🇺🇸 United States

Lanzado Dec 15, 2025 desde Cape Canaveral Space Force Station

Loading…

Próximos Pases (próximas 24 horas)

TLE

ActualizadoSource: CelesTrak SupGP

Época: Sep 15, 2026, 03:56 UTC

1 67120C 25299U   26258.16437500  .00011549  00000+0  41840-3 0  2589
2 67120  43.0012 179.2525 0001329 280.7324 319.1153 15.27565901    15

Sigue STARLINK-36217 en tiempo real con AllMySat

Download on the App Store